User: anonymous   Login
Location: Unspecified
(47.8330°N, 0.0000°E)
Time: 03:05:56
(UTC+00:00)
Language:

VELOX 1 - Orbit

View from above orbital plane
View from above orbital plane
View from above satellite
View from above satellite

Ground track
Ground track

The orbit data is extracted from the following two-line orbital elements,

1 40057U 14034E   20220.82095470  .00000190  00000-0  34132-4 0  9996
2 40057  98.2860 359.2124 0010393 348.4531  11.6441 14.77902116329224
Epoch (UTC): 07 August 2020 19:42:10
Eccentricity: 0.0010393
inclination: 98.2860°
perigee height: 628 km
apogee height: 643 km
right ascension of ascending node: 359.2124°
argument of perigee: 348.4531°
revolutions per day: 14.77902116
mean anomaly at epoch: 11.6441°
orbit number at epoch: 32922

The dashed part of the orbit path shows where the satellite is in the earth's shadow,  

DLR